GFSSGP_sfc_30mbdewp_099.txt.gz
Dewpoint
50 44 41 32 11 13 4 3 16 10 10 15 18 18 17 16 15 15 57 64 66 66 70 70 71 71 71 71 70 70 71 73 73 73 72 71 72 71 71 72 72 72 72 72 71 70 71 71 70
42 41 35 27 5 3 3 12 9 13 14 20 20 19 19 18 23 31 56 65 66 67 69 69 71 71 71 71 70 70 71 72 73 73 73 72 72 71 72 72 72 72 72 71 70 70 70 70 69
40 36 26 22 8 5 4 8 13 16 22 20 20 19 20 19 30 39 62 66 66 67 68 69 70 71 71 71 71 71 71 71 72 72 73 73 72 72 72 72 72 72 72 71 70 70 71 68 68
38 34 29 16 11 16 9 11 17 20 22 21 21 20 22 24 43 55 63 67 67 67 68 70 70 70 71 71 71 71 70 70 70 72 72 72 72 72 72 71 72 72 72 71 70 71 70 68 68
33 29 16 16 17 19 20 19 19 21 21 23 22 21 23 25 45 60 66 67 67 68 68 70 70 71 71 70 70 70 70 70 70 70 71 72 72 72 71 71 71 72 71 70 70 70 69 68 68
24 28 15 12 14 21 22 23 21 21 23 25 22 24 25 26 44 59 66 66 67 68 69 69 70 70 70 70 70 70 69 69 69 70 70 71 71 71 71 71 71 71 71 70 69 68 68 68 68
19 21 17 18 18 20 20 24 21 22 27 26 24 25 26 27 50 64 64 66 67 68 69 69 70 70 70 70 70 70 69 69 69 69 70 70 70 70 70 70 70 70 70 69 69 68 68 68 68
22 20 18 20 15 16 22 26 27 27 25 27 25 24 26 26 51 64 64 65 66 67 68 68 69 69 70 70 70 69 69 69 69 69 70 70 70 70 70 70 70 70 68 68 68 68 67 68 68
32 19 14 15 19 16 28 28 30 31 29 29 27 28 26 28 46 60 63 63 64 66 65 67 67 68 69 69 69 69 69 69 69 69 69 69 68 69 69 69 69 69 67 67 67 67 67 67 67
30 23 15 25 23 22 25 30 28 26 27 26 25 27 28 27 25 42 56 61 62 63 65 66 66 66 67 67 68 69 69 69 69 69 69 69 69 68 68 68 68 68 67 66 66 66 66 66 66
23 16 27 28 29 30 28 27 28 26 24 23 23 22 24 24 26 28 35 59 62 61 63 65 65 66 66 65 66 67 67 67 68 68 68 69 69 68 68 69 68 68 67 67 66 66 65 65 65
15 22 21 23 24 23 24 25 21 21 22 24 23 23 23 21 23 24 23 30 53 63 61 63 65 64 65 65 65 65 66 66 67 67 67 68 68 68 67 67 67 67 67 67 66 66 65 64 64
23 23 24 24 23 24 23 22 22 21 21 21 20 20 20 20 21 21 22 23 25 39 56 64 64 64 64 64 64 65 65 65 65 66 67 67 66 66 66 67 66 66 66 65 65 65 64 64 63
19 21 21 20 19 18 19 20 20 20 20 19 18 18 18 19 19 20 22 22 25 26 30 58 64 64 64 64 64 64 64 65 65 65 66 67 66 66 65 65 65 64 64 65 64 64 63 63 63
22 20 22 22 22 22 23 19 18 21 18 17 18 19 18 19 19 20 22 24 25 26 26 31 57 65 65 64 64 65 64 64 64 64 66 66 66 66 65 64 64 64 63 63 63 62 62 62 63
18 20 17 21 21 21 19 16 16 18 18 18 18 18 19 19 20 27 41 42 43 42 40 36 33 60 65 65 65 65 64 64 64 63 65 65 65 65 64 64 63 63 63 62 62 61 61 61 61
19 12 18 18 21 20 17 16 17 17 18 18 19 18 19 26 41 43 44 44 45 47 48 43 36 41 61 65 65 65 64 64 64 64 64 65 64 64 63 62 62 63 63 62 61 61 60 60 61
13 16 19 17 15 18 15 14 16 18 18 19 19 20 36 42 41 43 43 44 46 47 48 48 46 36 52 63 65 65 64 64 64 64 63 64 64 63 63 62 62 63 62 61 61 59 60 60 61
18 17 16 17 17 14 15 16 18 20 19 18 22 41 41 41 43 42 43 43 45 46 47 48 48 48 42 61 62 61 62 63 63 63 63 64 64 63 62 61 61 62 61 61 61 60 59 60 61
15 14 12 14 16 17 18 18 19 19 19 22 39 39 41 42 41 41 42 43 44 44 45 46 48 48 48 54 61 61 61 63 63 64 63 64 63 62 62 61 61 61 61 61 61 60 59 59 60
15 13 17 17 18 20 18 16 16 17 33 41 41 40 42 42 40 40 41 41 42 42 43 44 46 47 49 51 60 62 62 63 63 63 63 63 63 62 62 62 62 61 61 60 60 60 59 57 59
16 19 19 19 18 14 18 10 14 21 27 37 37 41 41 40 40 39 40 40 40 41 41 42 44 47 49 52 58 60 59 58 61 62 63 63 63 62 62 62 62 61 61 60 60 60 60 59 57
19 22 20 20 19 19 18 15 16 24 28 32 37 41 40 40 38 38 38 38 38 39 39 41 43 45 49 54 56 61 60 60 61 62 62 62 62 62 57 54 62 61 61 61 60 60 60 60 59
21 21 23 23 21 15 15 13 11 16 27 32 37 41 39 38 37 37 37 37 37 37 39 40 42 44 47 55 57 61 60 60 61 60 61 62 61 57 57 59 61 61 60 60 61 61 60 59 59
19 17 10 12 15 9 17 16 12 19 32 37 40 39 37 36 35 34 34 35 36 36 37 40 41 43 46 51 59 61 60 60 61 60 60 59 57 56 57 61 61 61 61 60 60 60 60 59 59
18 16 9 7 10 11 19 15 17 31 40 40 38 36 35 34 33 33 33 34 35 36 37 38 40 42 45 49 61 61 61 61 61 61 57 57 57 59 60 60 61 61 60 60 60 60 59 60 59
21 17 23 17 19 14 13 18 27 36 40 37 36 35 34 33 32 32 32 33 34 35 36 38 39 41 45 49 61 61 60 59 59 61 61 59 60 60 60 60 60 60 59 59 59 59 59 59 59
21 25 24 24 12 7 13 17 19 33 35 35 34 34 33 32 31 31 31 32 33 35 36 37 38 40 44 49 60 59 59 59 59 59 59 59 59 59 59 60 59 59 59 60 60 58 59 59 59
2 10 27 26 25 17 12 17 33 33 34 33 33 33 32 31 31 30 31 31 32 33 35 35 36 39 43 45 57 58 58 58 58 58 58 58 58 58 58 58 58 58 59 59 59 59 59 58 58
23 26 25 11 17 23 23 20 34 35 34 33 32 32 32 31 31 30 30 31 31 32 33 33 35 37 41 42 49 57 58 58 58 57 58 58 57 57 56 56 57 57 58 58 58 58 58 58 57

GFSSGP_sfc_30mbdewp_102.txt.gz
Dewpoint
47 36 36 31 17 9 7 5 6 9 9 14 16 17 16 16 15 16 26 62 64 63 68 70 71 70 70 71 71 72 72 72 72 72 72 72 72 72 72 72 72 72 72 72 71 70 70 72 72
33 33 31 22 11 8 7 7 5 5 13 19 20 19 18 19 23 32 41 58 64 63 67 69 71 70 70 70 70 71 73 73 72 72 72 72 72 72 72 72 72 72 73 72 70 70 71 71 71
33 34 23 18 13 10 9 8 8 10 18 17 18 20 22 22 30 36 45 58 63 64 65 66 71 70 70 70 70 71 72 72 73 72 72 72 72 72 72 72 72 73 72 72 70 71 72 70 69
28 25 21 15 14 14 13 11 13 15 16 17 18 17 22 28 35 38 51 63 64 64 64 68 71 70 70 70 70 70 71 72 72 73 72 72 72 72 72 71 72 73 72 71 71 71 70 68 69
28 21 16 16 16 16 17 16 15 13 16 17 20 16 22 25 31 43 53 63 66 65 65 68 70 70 70 70 69 70 70 70 71 72 72 72 72 72 71 71 72 72 72 71 71 71 69 68 68
20 22 15 15 15 16 18 19 18 17 18 18 21 21 23 26 28 43 53 63 67 67 67 68 70 70 70 70 70 69 69 69 70 71 72 72 72 72 71 71 71 72 72 71 70 70 69 68 68
19 20 17 16 16 17 18 22 19 20 21 22 25 24 24 26 28 42 53 63 67 68 68 68 69 70 70 70 70 69 69 69 69 70 71 72 71 71 70 70 70 70 70 70 70 69 68 68 68
19 18 15 16 15 15 17 20 20 21 19 29 27 21 24 28 25 34 50 60 65 68 68 69 69 70 69 69 70 69 69 69 69 69 70 70 70 70 70 70 70 70 69 69 69 68 68 68 68
21 14 13 14 14 16 17 19 22 28 26 25 27 26 27 25 24 26 36 50 63 66 67 68 68 69 69 69 69 69 69 69 68 69 69 69 67 68 68 68 69 70 69 68 68 68 68 67 68
20 15 14 14 16 15 15 20 18 20 18 20 23 22 23 23 24 26 27 34 59 63 65 67 68 68 68 68 69 69 68 67 67 66 67 67 66 66 65 66 69 69 68 67 67 67 67 67 65
18 17 18 18 19 16 15 17 18 17 18 19 20 21 21 22 23 26 25 24 41 58 63 64 67 67 68 67 67 68 68 68 68 67 67 66 66 66 66 66 67 67 67 66 65 66 65 63 63
12 15 15 15 15 20 16 16 15 15 16 17 17 20 21 21 21 21 21 22 23 34 50 61 64 66 67 66 66 67 67 67 67 68 69 68 68 65 65 64 65 65 65 64 64 63 63 63 63
17 11 11 13 13 14 13 14 16 17 18 18 18 21 20 19 19 19 20 21 24 25 30 45 61 64 65 66 65 65 66 66 66 67 67 68 67 66 64 63 65 65 64 65 64 64 64 64 64
13 16 16 19 19 19 19 16 17 18 19 19 20 19 18 19 20 20 21 25 29 30 30 32 45 59 64 64 64 64 64 64 65 66 66 67 67 66 66 66 66 63 64 65 65 65 64 64 63
18 16 15 17 17 15 19 16 16 20 20 19 18 18 18 20 21 22 31 37 39 40 41 43 38 46 59 63 63 63 62 63 62 64 66 67 67 66 65 65 64 65 64 66 66 66 65 64 63
16 17 15 17 17 18 19 14 17 16 17 16 16 18 20 20 25 36 42 42 42 43 45 47 47 44 45 57 61 63 63 63 61 62 65 66 66 66 66 65 64 65 65 65 64 64 63 63 63
16 13 15 15 20 18 18 15 15 17 17 17 18 18 20 25 36 41 42 42 43 44 47 48 49 49 46 46 57 60 63 64 63 62 63 64 66 65 66 64 64 65 65 64 63 63 63 62 62
15 14 14 14 15 17 15 14 14 11 14 19 19 20 25 32 36 41 41 43 43 45 46 47 48 50 51 49 49 58 59 65 64 63 62 63 66 66 65 64 64 64 63 63 63 62 62 61 61
16 14 13 15 15 15 13 9 9 16 19 19 18 25 32 36 39 39 41 42 43 44 45 45 47 48 50 49 43 52 57 62 61 62 62 63 64 65 65 64 64 63 62 62 62 61 60 60 61
16 14 12 13 12 9 11 13 16 17 18 17 20 33 36 37 38 39 40 42 43 44 45 45 46 46 47 49 48 47 54 56 59 61 63 63 64 65 64 63 63 63 62 62 62 61 59 60 61
15 12 11 8 14 18 18 15 15 16 19 28 33 36 38 38 38 38 39 41 42 42 43 44 45 46 47 49 50 49 54 56 59 61 63 64 64 64 63 63 62 62 62 62 62 61 60 59 60
12 12 11 13 17 11 17 6 11 12 21 29 34 37 38 39 39 38 38 39 40 41 42 42 43 44 45 47 49 50 49 54 56 58 62 63 64 64 63 63 62 62 62 62 62 61 61 60 58
13 16 18 17 17 16 14 12 6 13 17 26 33 38 39 39 38 37 37 37 38 40 39 40 41 42 43 45 47 51 51 56 55 57 61 63 63 63 63 62 62 62 62 62 62 61 61 61 59
21 20 20 20 17 14 12 11 5 12 16 25 35 38 39 38 37 36 36 36 37 39 39 38 39 40 42 44 46 50 54 54 55 56 60 62 63 62 63 63 63 62 62 61 61 61 60 60 60
24 17 16 14 13 9 9 9 6 16 26 30 37 38 38 37 36 35 34 35 37 38 38 38 38 39 40 42 45 50 55 54 58 57 60 61 61 62 62 62 59 60 61 61 61 61 61 60 60
21 16 15 11 6 6 15 9 20 35 38 38 38 37 37 35 35 34 34 34 36 37 37 37 37 37 39 42 46 50 57 56 60 59 60 60 61 61 62 60 57 56 59 60 61 61 61 60 60
16 16 15 13 14 11 9 16 33 37 37 37 36 36 35 34 33 33 33 34 35 36 37 36 36 37 38 42 45 50 60 60 61 61 61 60 61 60 59 58 59 60 61 61 61 61 60 60 60
22 20 18 17 10 7 4 6 12 31 32 30 31 33 34 33 33 32 32 34 35 35 36 36 36 36 38 41 44 49 60 61 60 61 61 59 59 59 59 59 60 61 61 61 61 60 60 59 59
14 19 25 23 19 12 8 11 31 30 29 29 29 32 34 33 32 32 32 33 34 34 35 34 34 35 36 39 42 47 59 60 60 60 60 60 60 60 60 60 60 59 60 60 60 59 59 58 58
11 17 16 12 10 16 20 14 31 32 30 29 28 32 33 33 31 31 31 32 32 33 33 32 33 34 35 37 40 43 46 53 59 59 59 60 60 60 60 60 59 59 59 59 59 58 58 58 58

GFSSGP_sfc_30mbdewp_105.txt.gz
Dewpoint
48 38 30 28 20 14 9 8 7 7 8 12 12 12 14 15 14 18 31 51 61 61 69 69 70 70 71 71 72 72 72 71 71 72 72 72 72 72 72 73 73 72 72 71 71 71 71 71 72
38 29 28 25 16 10 8 9 7 7 12 14 15 14 14 16 20 29 37 46 54 61 64 68 70 70 71 71 71 72 72 72 72 72 72 72 72 72 72 72 72 72 72 71 72 71 71 72 72
35 29 25 20 17 12 8 11 10 10 15 14 13 17 19 20 24 32 42 52 57 59 63 67 70 70 71 71 71 72 72 72 72 72 72 72 72 72 72 72 72 72 72 72 71 70 71 71 71
27 25 24 19 16 15 14 14 12 11 13 14 13 14 19 27 32 35 45 53 61 61 63 69 70 70 71 70 71 72 72 72 72 72 72 72 72 72 72 72 72 72 73 71 71 71 71 70 69
28 24 20 18 17 17 16 16 16 14 13 15 15 16 17 25 27 33 43 54 62 64 63 70 70 70 70 70 70 71 71 72 72 72 72 72 72 72 72 71 72 72 72 71 71 71 70 68 69
22 22 19 16 16 16 17 19 19 17 17 17 16 18 19 25 26 30 42 54 65 66 65 69 70 70 70 70 70 70 70 71 72 72 72 72 72 72 71 71 71 71 71 70 71 71 69 68 68
22 21 19 19 18 17 18 19 20 19 18 18 19 22 24 25 29 29 36 51 62 67 67 67 70 70 70 70 69 69 69 70 71 71 72 72 72 71 71 70 71 71 70 70 70 70 69 68 68
20 20 18 18 17 17 18 18 20 19 18 25 25 23 22 26 29 26 28 42 58 66 68 68 69 69 69 69 69 69 68 69 69 70 71 72 71 71 70 70 70 70 70 70 70 69 68 68 68
23 16 17 18 17 17 17 17 18 20 24 23 25 25 26 27 25 24 27 33 52 64 66 68 69 69 69 68 69 69 69 68 68 69 70 70 69 70 69 69 69 70 69 69 69 68 68 67 67
22 19 19 19 18 16 16 16 17 19 20 21 19 23 24 23 23 24 26 27 37 58 64 68 69 69 69 68 68 68 67 67 66 65 66 67 66 66 65 67 68 69 69 68 68 68 68 67 65
22 21 22 20 19 19 17 15 15 15 16 18 19 21 23 22 23 24 25 25 26 43 61 64 67 68 68 68 68 68 66 66 66 66 66 66 65 65 65 64 67 68 68 67 67 67 66 64 63
20 20 16 18 18 16 17 19 17 17 16 17 17 17 18 20 21 22 22 23 25 27 43 60 63 66 68 67 67 67 66 67 65 65 67 66 66 64 63 61 64 66 66 65 64 65 65 64 63
19 19 18 14 13 14 12 11 11 12 14 16 17 18 19 20 20 21 20 21 23 26 28 35 53 61 65 66 65 65 65 66 66 67 68 65 63 63 62 61 61 64 63 64 63 64 64 64 63
17 15 16 17 14 15 13 13 14 16 17 16 16 17 19 19 19 20 21 22 29 33 33 37 38 46 58 62 65 64 64 64 65 64 67 68 67 66 63 61 60 60 63 66 63 63 64 64 64
19 16 17 16 17 18 18 16 17 17 16 17 17 20 19 18 20 20 26 33 35 37 40 44 45 42 45 57 61 63 63 63 61 62 64 67 67 67 64 64 64 61 61 65 66 65 64 64 64
21 20 18 21 19 18 17 16 17 17 17 18 17 18 18 19 20 26 37 37 38 40 43 46 47 49 50 47 52 58 59 62 62 60 63 65 66 66 66 63 65 65 62 65 65 64 64 63 63
24 20 20 20 21 18 17 17 18 18 17 16 16 16 18 20 24 36 38 38 40 41 44 45 47 48 50 51 50 51 58 60 61 61 61 64 65 64 66 64 65 64 63 65 65 64 64 63 62
25 23 22 19 20 18 18 18 18 16 15 14 16 17 18 20 28 37 38 40 42 43 45 45 46 47 49 50 51 49 49 58 60 60 62 63 65 65 66 65 65 65 64 65 64 64 63 63 62
24 24 24 19 19 18 16 15 14 15 14 12 16 18 19 26 34 36 40 41 43 43 44 45 46 47 47 47 47 46 43 50 56 59 60 63 64 66 66 65 65 64 63 64 64 63 62 62 62
25 22 22 23 21 16 15 14 12 11 11 15 17 18 24 32 33 37 38 40 42 43 44 45 45 46 46 46 47 48 49 47 51 56 59 62 64 66 65 65 64 64 63 63 63 62 61 61 62
30 26 20 24 26 18 14 10 12 15 16 16 17 23 32 33 35 36 37 39 40 41 43 44 44 45 46 47 47 48 49 50 51 57 58 59 63 65 65 65 64 64 63 63 63 62 60 59 61
28 28 21 24 19 12 14 12 14 14 14 16 25 31 33 36 36 36 37 38 39 39 42 43 43 44 44 46 46 47 48 48 44 50 55 59 61 63 65 65 64 63 63 62 62 62 61 60 59
29 26 26 25 16 14 15 15 13 12 13 20 27 31 36 37 36 37 36 37 37 39 41 42 42 42 44 44 45 46 48 49 50 50 53 58 61 63 64 65 64 63 63 63 62 61 61 61 60
32 30 24 23 18 17 21 17 14 13 12 20 29 34 37 37 37 36 36 36 36 38 40 41 41 41 42 42 42 44 46 48 51 50 53 56 62 63 64 64 63 63 63 62 63 62 62 61 60
31 31 22 20 21 20 15 15 17 16 15 23 32 35 37 37 36 34 34 35 36 37 39 40 40 40 40 40 41 43 45 47 50 52 54 56 61 62 62 63 63 62 62 58 55 57 61 61 61
27 28 20 17 16 16 16 15 26 31 34 36 36 37 36 34 34 34 34 35 35 36 38 39 38 38 38 39 40 42 45 48 51 53 55 57 60 62 62 63 62 62 61 59 61 62 62 62 61
29 24 21 19 19 16 22 26 34 35 35 35 35 34 33 32 33 34 34 34 35 36 37 38 37 38 37 38 39 41 44 48 55 57 57 59 61 61 62 63 62 63 62 62 62 61 61 61 61
21 25 17 21 18 10 13 17 22 33 32 31 29 30 29 30 31 33 33 34 34 35 36 37 37 36 36 37 37 40 43 47 56 57 58 59 60 61 61 62 61 60 58 59 60 60 60 61 61
17 28 26 27 22 16 13 21 34 33 30 28 28 28 27 29 30 31 32 33 34 34 35 35 35 35 35 35 37 39 41 44 49 58 58 58 59 60 59 60 60 59 59 58 58 58 59 60 60
16 14 22 24 18 24 16 20 33 30 29 25 24 25 27 29 30 31 32 32 33 33 33 34 33 34 34 34 35 37 38 41 44 47 55 59 59 60 59 59 59 59 59 59 57 56 57 58 58

GFSSGP_sfc_30mbdewp_108.txt.gz
Dewpoint
47 39 34 29 23 21 15 10 10 7 8 11 12 10 12 14 14 25 45 49 54 67 68 69 70 70 71 72 72 72 71 71 72 72 72 72 72 72 72 72 72 72 72 72 71 71 71 71 72
38 38 28 25 22 17 12 11 8 11 13 14 14 14 11 12 20 28 40 49 55 63 70 67 70 70 71 71 72 72 72 72 72 72 72 72 72 72 72 72 72 72 72 72 71 71 71 71 72
45 36 25 23 20 17 14 12 11 11 14 12 13 16 17 21 29 31 43 50 58 56 68 67 69 70 71 71 72 72 72 72 72 72 72 72 72 71 72 72 72 72 71 71 71 71 71 71 71
30 25 25 22 19 17 16 16 13 11 13 14 13 13 17 27 31 33 41 50 59 61 62 69 69 70 71 71 71 72 72 72 72 72 72 73 72 72 72 72 72 72 72 71 71 71 71 71 70
28 26 22 20 18 18 18 17 17 15 15 14 14 14 16 27 28 30 40 52 62 65 70 69 69 70 70 71 71 72 72 72 71 71 72 72 72 72 72 71 71 72 72 71 71 71 71 70 69
25 24 21 19 18 18 17 18 19 18 18 18 17 16 17 22 27 31 33 49 63 66 70 70 70 70 70 70 70 71 72 72 71 71 72 72 72 72 71 71 71 71 72 71 70 71 70 68 69
23 23 21 20 19 19 20 20 19 19 19 18 19 18 21 25 32 30 31 36 60 67 69 71 70 70 70 70 70 70 71 71 72 71 72 72 72 71 71 70 71 71 71 70 70 70 69 68 68
23 21 20 20 19 18 19 18 19 19 19 22 25 22 23 28 30 29 29 30 48 66 67 70 71 70 70 70 69 69 69 70 71 71 71 71 71 71 71 70 70 70 71 70 70 70 69 68 68
23 19 19 19 19 19 19 17 18 19 18 22 22 24 25 27 27 26 27 30 38 63 67 68 70 70 70 69 69 69 69 69 70 70 71 71 71 71 70 70 69 70 70 70 69 69 69 68 67
22 20 21 23 21 20 20 18 17 17 19 22 23 23 24 26 25 25 26 28 32 44 68 68 69 70 69 69 69 69 68 68 68 68 70 71 70 70 69 69 69 69 69 69 69 68 68 67 67
22 21 23 23 24 24 21 19 19 17 16 17 19 21 22 24 25 25 26 26 28 34 63 68 69 69 69 69 70 69 68 67 68 67 68 69 68 68 68 68 68 69 69 69 68 68 68 68 67
23 22 23 22 22 20 17 18 17 19 19 19 19 19 19 19 21 24 25 26 27 28 38 67 69 69 69 69 68 69 68 68 68 68 68 68 68 67 67 66 68 69 68 68 66 67 67 67 66
26 24 23 22 21 20 18 15 16 15 16 15 16 16 17 20 20 22 23 23 24 28 35 41 52 66 68 67 68 68 68 68 67 68 68 67 67 67 66 65 66 67 67 67 66 66 66 66 65
26 24 23 21 18 17 18 17 16 16 16 15 15 16 18 19 21 21 22 23 30 35 37 42 47 47 49 66 65 66 66 66 68 67 67 68 67 66 65 65 63 66 66 66 66 65 65 65 64
26 23 22 23 23 21 19 18 18 21 20 19 18 17 17 19 20 20 23 31 34 37 42 46 46 51 53 53 56 64 65 66 65 66 67 67 68 68 66 65 63 62 65 63 65 65 66 65 64
25 25 24 26 25 24 21 18 20 21 20 19 18 19 19 20 19 22 32 37 37 39 44 46 48 50 53 54 55 54 55 64 65 64 65 68 67 67 67 66 64 65 63 65 66 65 65 64 64
26 25 26 26 27 24 22 21 21 20 21 18 17 19 19 19 21 31 38 37 39 41 45 46 47 49 51 53 54 55 54 53 63 64 64 67 67 67 67 66 65 65 64 65 65 65 64 64 64
23 22 23 25 27 26 23 22 20 20 19 18 18 17 18 19 21 38 38 41 42 44 45 46 48 49 50 51 52 54 54 53 53 61 64 64 66 66 66 66 65 65 64 64 66 64 65 64 64
24 23 24 24 25 27 27 26 20 20 20 18 18 17 17 20 35 38 41 43 43 44 46 46 46 48 49 49 49 48 49 51 50 54 60 63 65 66 65 65 65 65 64 63 65 64 63 63 63
25 27 27 29 27 25 27 30 32 19 18 18 16 15 19 22 33 37 38 41 42 43 44 44 45 46 46 47 49 49 50 50 52 53 54 60 61 64 65 65 65 65 64 63 64 63 62 62 63
23 23 26 27 27 27 27 30 29 25 18 15 16 15 20 31 34 36 37 39 41 42 43 43 44 44 45 46 47 48 49 49 50 51 50 52 60 62 64 65 66 64 64 62 64 63 62 60 62
22 26 27 27 28 27 28 26 27 22 19 15 14 19 32 35 35 35 37 38 39 41 42 43 43 43 43 45 45 45 46 46 48 50 52 51 60 61 63 65 65 64 63 63 63 63 61 60 60
25 32 32 33 31 28 27 25 23 21 21 21 24 31 36 36 36 36 36 36 37 40 41 42 42 42 42 43 43 42 43 45 47 49 50 53 53 60 62 64 65 64 63 61 62 63 61 60 59
33 33 31 32 30 24 24 22 25 25 22 18 28 36 36 36 36 34 35 36 37 39 40 41 40 40 41 41 41 40 41 42 44 46 48 50 53 56 60 63 64 64 63 63 62 58 61 61 60
29 31 24 22 23 19 20 23 26 27 33 24 38 37 36 36 35 34 34 35 36 37 38 39 39 39 40 39 39 39 40 41 42 44 46 48 52 56 57 60 64 64 63 62 62 61 61 61 61
26 29 22 18 20 18 22 27 29 39 39 41 42 40 34 34 34 34 34 35 35 36 37 38 38 38 38 38 38 38 39 41 43 45 47 49 52 55 58 60 62 63 63 62 62 60 61 60 59
31 29 28 24 25 25 27 27 32 39 38 39 40 37 31 31 31 32 32 34 35 36 37 37 37 36 36 37 37 37 39 41 43 45 47 51 53 55 59 63 63 63 62 62 60 58 58 55 59
28 29 28 28 20 19 17 23 30 34 35 33 33 30 28 28 29 30 32 33 34 35 35 36 36 34 36 36 36 36 38 40 42 45 47 53 56 58 60 62 62 62 62 62 59 58 59 61 61
20 20 31 32 22 21 16 27 37 35 36 32 28 26 27 28 29 30 31 33 33 34 34 34 35 34 34 34 35 36 36 38 40 41 43 45 49 57 59 61 62 61 62 62 61 60 60 60 60
19 19 30 28 26 29 27 25 38 37 34 26 23 25 27 28 29 30 31 31 32 32 32 33 33 33 32 32 34 34 34 36 37 38 41 44 44 51 58 60 60 61 60 60 60 60 59 59 57

GFSSGP_sfc_30mbdewp_111.txt.gz
Dewpoint
43 39 40 34 25 24 20 18 19 12 11 14 14 13 11 12 25 36 49 53 66 67 70 70 71 72 72 72 71 71 71 72 72 72 72 72 71 71 71 71 72 72 72 72 72 71 71 71 71
42 41 37 29 23 20 20 20 12 13 14 14 14 14 13 20 29 41 46 51 65 67 69 70 70 71 72 72 72 71 72 72 72 72 72 72 71 71 71 71 71 72 73 72 71 71 71 71 71
43 43 32 25 22 20 20 18 12 14 14 13 13 17 18 29 31 41 49 57 60 69 68 69 70 70 71 71 72 72 71 72 72 72 72 72 71 71 71 71 71 71 73 72 71 71 71 71 71
34 30 26 23 22 23 21 21 15 12 14 14 13 13 22 33 31 41 52 59 62 67 68 69 69 70 71 71 71 72 72 71 71 72 72 72 71 71 71 71 71 71 72 71 72 72 71 71 71
37 28 23 22 22 22 21 21 20 14 15 14 14 14 19 30 36 41 52 61 60 68 69 69 69 70 70 70 71 71 72 72 71 72 72 72 72 71 71 71 71 71 72 72 71 71 71 71 70
27 26 23 21 22 22 22 22 20 18 18 18 18 17 18 31 31 32 44 60 64 69 70 69 70 69 69 70 71 71 72 71 71 71 72 72 72 71 71 70 71 71 72 71 71 71 71 70 69
24 23 22 22 22 22 22 22 20 20 21 20 24 21 26 30 30 29 30 46 66 70 69 69 70 70 70 69 70 71 71 71 71 71 71 72 71 71 71 70 70 71 71 71 70 70 70 68 68
24 23 20 20 20 21 22 21 20 20 20 25 25 22 22 30 29 27 26 30 66 68 70 69 69 69 69 69 69 70 71 71 71 71 71 71 71 71 71 70 70 70 70 70 70 70 70 68 67
24 20 20 19 19 20 23 24 22 19 19 22 24 23 25 30 27 25 26 29 56 67 69 71 70 70 69 69 69 69 70 70 71 71 71 71 71 71 71 70 70 70 70 70 70 69 69 68 67
22 21 21 21 22 23 24 23 21 20 19 21 21 24 26 27 27 25 25 26 30 64 66 68 70 70 70 69 69 68 69 69 70 71 71 71 71 71 71 70 69 69 69 70 69 69 69 68 67
24 22 23 23 23 25 24 23 23 18 18 21 22 25 25 27 27 25 25 26 26 60 67 67 69 70 69 69 69 68 68 68 68 69 70 70 70 70 70 70 69 69 69 69 69 68 68 68 67
25 27 25 24 23 23 23 23 22 18 18 20 18 20 19 19 21 27 25 25 26 32 64 68 69 68 68 67 70 69 68 67 67 67 68 69 68 68 69 68 68 68 69 68 68 68 68 67 67
27 27 28 27 25 24 22 19 20 20 18 17 16 16 17 18 20 24 25 25 28 37 43 51 64 65 66 67 68 69 69 68 67 67 67 68 67 67 67 67 68 68 68 68 67 67 67 67 67
30 30 29 28 25 24 23 23 21 19 20 18 17 17 17 20 21 21 22 25 36 42 46 47 51 52 52 56 63 66 67 68 68 68 68 68 68 67 67 67 67 68 68 68 67 66 66 66 66
30 27 26 26 25 24 24 22 22 23 21 20 21 20 18 19 22 21 31 35 41 46 46 48 50 51 53 54 55 55 61 66 66 67 67 68 68 67 66 66 65 67 67 67 67 66 66 66 65
28 27 24 26 26 27 27 24 25 23 21 21 21 21 20 19 21 29 37 39 45 46 46 48 50 51 51 52 54 54 55 56 57 65 66 66 67 67 67 66 65 64 66 65 66 65 65 64 64
28 25 25 26 27 28 28 26 27 32 29 22 21 21 20 21 33 37 38 43 45 46 47 47 49 49 50 51 51 52 53 54 54 55 62 65 66 67 67 66 66 65 65 65 64 64 64 64 64
23 24 25 24 24 29 30 28 27 29 30 27 21 20 20 21 37 40 43 44 45 46 46 46 47 47 48 49 50 50 51 52 53 53 53 61 66 67 66 65 65 66 65 64 65 64 64 64 64
26 24 22 23 27 28 28 29 29 30 31 31 22 19 19 34 41 43 43 43 44 44 44 45 45 46 46 47 47 47 48 49 50 50 51 53 61 65 66 65 65 65 65 63 64 64 64 63 63
22 21 23 25 25 27 27 28 29 29 30 31 30 19 21 38 40 41 42 42 43 43 44 44 44 44 45 46 46 47 47 49 49 51 51 51 52 54 65 66 65 66 65 64 63 64 63 62 63
20 22 23 22 24 28 28 26 27 27 29 31 30 21 23 37 38 39 39 41 42 42 43 43 43 42 42 43 44 44 44 45 46 47 48 49 51 53 55 63 65 65 65 63 64 63 62 61 62
21 24 29 30 30 27 31 24 26 27 27 29 32 26 36 38 37 37 38 39 40 41 42 41 41 41 41 42 42 41 41 41 43 44 46 47 48 50 53 56 62 64 65 63 62 59 56 53 57
27 32 32 32 30 29 27 27 24 26 24 26 32 34 37 36 35 36 36 38 39 40 40 40 40 40 40 40 40 39 39 40 41 42 43 45 47 49 51 55 59 60 64 63 59 56 57 59 59
32 32 30 30 31 24 24 24 22 22 27 34 37 36 35 34 35 35 36 37 37 38 39 38 38 38 39 38 38 38 38 38 39 40 41 43 45 47 50 53 58 60 60 62 61 59 59 60 59
33 28 23 21 23 19 19 25 25 27 33 39 40 39 35 34 34 35 35 36 36 37 37 37 36 35 36 37 37 37 37 38 39 40 42 43 45 47 49 52 56 59 59 59 61 61 61 60 60
29 27 22 17 19 23 27 26 27 40 43 42 40 39 36 33 33 34 35 35 35 36 37 36 35 34 35 36 36 36 37 38 38 41 42 43 44 47 49 51 54 56 60 61 61 60 59 59 60
30 28 28 26 24 21 21 28 35 36 40 40 37 36 32 30 32 33 34 34 34 34 35 34 35 34 33 34 35 35 36 37 37 39 41 43 46 48 51 51 53 52 55 56 60 58 59 57 55
29 30 27 28 19 18 19 25 26 31 33 36 35 30 31 33 31 32 33 33 33 33 34 34 33 34 33 33 33 34 35 35 36 38 40 41 43 46 49 54 54 56 51 54 59 59 60 59 57
27 28 30 31 29 22 19 26 32 31 34 34 34 31 29 29 30 31 31 31 32 32 32 33 32 33 33 32 32 33 33 34 35 36 37 39 40 43 46 49 58 58 58 58 58 60 59 58 57
24 25 27 26 24 28 27 27 37 35 36 36 29 29 29 29 29 29 29 30 30 30 30 31 32 32 32 32 32 32 32 33 33 34 35 37 38 40 42 47 54 58 57 55 59 59 58 58 58

GFSSGP_sfc_30mbdewp_114.txt.gz
Dewpoint
45 38 39 33 24 24 21 19 20 15 11 14 14 12 13 19 26 26 50 62 67 68 70 71 72 72 72 72 72 71 71 71 71 71 70 70 70 71 71 72 72 73 73 72 71 71 71 71 71
43 39 35 29 23 20 19 22 18 14 13 14 15 16 20 32 41 47 48 61 67 68 70 71 71 72 71 71 71 71 72 72 71 71 71 70 70 70 71 71 72 72 73 72 71 70 71 71 71
43 42 30 24 22 20 19 17 19 17 14 13 14 17 24 30 39 44 52 64 67 68 69 69 71 71 72 71 70 71 72 72 71 71 71 71 70 71 70 70 71 72 72 71 70 70 72 71 70
36 29 26 23 22 23 22 23 22 15 14 14 13 16 26 34 37 48 59 63 68 68 68 69 70 70 71 71 71 70 71 71 71 71 72 71 71 71 71 70 70 71 73 72 71 71 71 71 70
34 28 23 22 22 23 23 23 23 21 14 14 14 13 25 38 47 55 57 58 66 68 67 69 69 70 70 71 71 71 71 71 71 71 72 71 71 71 71 70 70 71 72 72 73 72 71 70 70
23 26 23 21 22 23 23 24 22 21 18 17 15 16 27 34 41 52 59 58 67 68 68 69 69 70 70 70 70 71 71 71 71 71 71 71 71 71 70 70 70 70 71 71 71 70 70 70 69
22 23 22 22 22 22 23 23 22 22 21 21 24 21 29 29 30 31 51 64 68 69 68 69 69 70 70 69 70 70 71 71 71 71 71 71 71 70 70 70 70 70 70 71 71 70 70 70 69
24 23 21 20 20 20 22 25 24 22 20 25 24 22 27 29 29 26 28 62 67 69 68 69 69 69 69 69 69 70 70 71 71 70 71 71 70 70 70 69 70 70 70 71 70 70 70 69 68
24 20 20 21 20 20 22 23 24 22 21 21 24 23 28 30 28 25 26 41 66 69 69 68 68 69 68 69 69 70 70 70 70 70 70 70 71 70 70 70 69 69 70 70 70 70 69 69 67
23 21 21 22 22 22 23 23 24 23 23 20 21 23 26 30 26 25 25 25 57 66 68 69 69 69 68 69 69 69 70 70 70 71 70 70 70 70 70 70 69 69 69 69 69 69 69 69 68
24 21 22 23 24 25 24 24 24 23 21 20 19 20 20 24 27 26 25 25 26 40 66 69 70 69 69 69 68 68 68 69 69 70 69 69 69 70 70 70 69 69 69 69 69 69 68 68 67
26 26 27 27 28 27 26 24 24 21 21 21 21 19 19 18 24 26 24 24 26 43 64 67 69 69 69 69 68 68 67 67 68 68 69 69 69 69 69 69 69 68 68 68 69 68 68 67 67
30 29 30 30 30 29 27 26 25 24 24 21 20 19 17 18 19 24 25 25 45 54 62 66 65 62 65 67 68 69 68 67 67 67 68 69 69 68 69 69 69 68 68 68 68 68 67 67 67
31 31 30 29 28 27 26 25 25 25 25 24 24 22 20 19 19 21 25 32 42 47 50 51 53 54 55 56 56 60 66 68 67 67 67 68 67 67 67 68 68 68 68 68 68 67 67 67 66
31 29 29 29 27 26 27 24 25 26 26 25 25 24 22 20 20 21 26 43 47 48 49 51 51 51 51 52 53 55 56 58 61 67 68 67 68 67 66 66 67 68 68 68 67 67 66 66 66
29 28 26 25 26 26 26 23 27 28 28 29 28 28 26 22 21 29 42 46 47 48 48 48 48 48 49 50 51 52 53 55 56 57 60 65 68 68 67 67 66 66 67 67 67 66 66 65 65
28 23 25 25 27 26 27 26 29 29 30 29 30 31 31 26 32 41 45 46 46 46 47 46 46 46 47 48 49 50 50 51 52 53 53 58 63 66 67 67 66 66 66 66 66 66 65 64 64
19 24 24 24 25 27 26 26 27 29 30 29 30 30 31 26 39 44 45 45 45 45 45 45 45 45 46 46 47 47 49 49 51 51 51 52 53 56 64 65 65 66 65 65 65 65 65 64 64
27 26 26 26 24 25 24 25 27 28 29 27 27 30 31 40 43 44 44 43 44 44 43 43 43 44 43 44 44 44 45 45 47 48 49 51 53 54 54 61 66 65 65 64 64 64 63 63 64
29 28 25 23 23 24 24 25 27 28 27 26 27 29 39 41 41 42 42 42 42 42 42 41 41 41 41 42 43 44 43 45 45 47 47 48 49 50 51 53 58 64 65 64 63 63 61 63 63
26 24 22 21 28 27 26 26 25 25 26 27 28 28 38 41 40 40 41 41 41 40 40 40 40 40 41 41 41 40 41 42 42 42 43 45 46 47 48 50 53 54 62 64 64 63 61 58 62
24 29 29 29 27 23 30 22 22 23 24 26 27 36 40 40 38 39 39 39 39 39 39 39 39 39 39 39 39 39 38 38 39 40 42 42 44 45 47 50 51 53 56 60 63 63 62 59 56
28 32 30 30 28 29 25 26 20 22 23 25 37 41 41 40 39 37 37 38 38 38 38 37 36 36 37 38 38 38 37 38 38 39 40 41 43 45 46 48 49 51 52 55 62 62 59 57 54
34 30 29 30 30 22 21 23 21 23 30 35 40 39 39 38 36 36 36 37 37 36 36 35 34 34 35 36 36 36 36 36 37 38 39 41 43 44 46 47 49 51 53 56 60 62 60 56 55
31 27 23 19 20 17 24 23 23 38 39 40 37 37 38 36 36 35 34 35 35 35 34 34 34 33 33 34 35 35 35 36 37 37 39 39 41 43 45 46 48 50 51 54 58 60 58 58 57
30 28 22 15 18 21 24 20 30 36 35 38 38 38 38 36 35 34 34 33 33 34 33 32 33 33 33 33 33 34 35 36 36 36 37 38 40 42 44 45 48 49 51 52 56 60 60 58 58
29 26 27 26 25 21 20 28 33 33 32 33 33 34 35 36 34 33 33 32 32 33 33 32 33 33 33 32 33 33 34 34 35 35 37 38 39 40 41 43 45 47 52 52 54 59 59 59 58
29 30 26 27 18 18 20 25 25 30 31 32 32 32 32 34 33 32 32 31 31 31 32 32 32 32 32 32 32 33 33 34 34 35 35 36 37 38 39 41 43 47 51 53 54 55 58 58 57
30 28 30 27 27 21 19 23 32 32 33 32 32 33 32 29 29 29 30 31 30 30 31 31 31 31 31 31 31 31 31 32 33 33 33 34 35 36 37 38 41 45 48 56 54 53 56 58 57
29 28 30 24 22 28 23 25 36 35 36 32 31 31 30 29 28 28 28 28 29 29 30 30 30 30 31 31 30 30 31 31 31 31 31 32 32 34 35 36 38 41 42 47 58 55 55 57 57

GFSSGP_sfc_30mbdewp_117.txt.gz
Dewpoint
44 38 38 31 23 23 20 18 20 15 12 14 14 12 17 24 25 21 50 59 67 67 71 71 71 72 72 72 71 71 71 71 71 71 71 71 71 71 71 72 73 73 73 72 71 71 71 71 69
45 40 33 27 22 18 16 22 20 21 20 16 15 15 22 34 44 48 51 65 67 68 70 71 71 71 71 71 71 71 72 71 71 71 71 71 71 71 72 72 72 73 73 72 71 71 71 71 69
40 40 27 24 22 18 17 21 23 23 22 15 13 19 27 33 44 47 51 65 67 68 70 71 71 71 71 71 71 71 72 71 71 71 70 70 71 71 71 72 72 73 73 71 70 70 72 71 70
35 28 26 23 20 23 22 23 23 22 22 17 13 16 30 35 41 47 59 67 66 67 69 70 71 71 70 70 70 71 71 71 71 71 70 70 70 71 71 71 72 72 72 71 71 72 71 70 69
32 27 23 22 22 23 24 24 24 23 22 16 14 14 28 41 49 56 63 67 67 67 68 69 70 71 71 71 70 70 71 70 70 71 71 70 70 70 70 70 71 72 72 72 71 71 71 70 69
25 26 22 21 22 23 24 24 23 23 23 21 19 18 28 34 49 56 58 62 68 67 68 69 70 70 71 71 71 70 70 70 70 70 71 70 70 70 70 69 70 71 72 72 71 71 70 70 70
24 23 22 22 22 22 23 24 23 22 23 21 23 24 29 30 36 49 58 63 68 68 68 68 69 70 70 70 70 70 70 70 70 70 71 71 70 70 70 70 70 70 71 71 71 70 70 70 69
24 23 21 21 21 21 22 23 24 23 23 24 24 23 27 29 30 30 56 63 67 68 68 68 68 69 69 69 69 70 70 70 70 70 70 70 70 69 69 69 69 70 70 70 70 70 70 70 69
24 20 21 21 21 21 22 23 24 24 23 24 22 22 26 32 30 27 34 61 67 68 67 68 68 68 68 68 69 69 70 70 70 70 70 70 70 70 69 69 69 69 69 70 70 70 69 69 68
24 21 21 22 22 22 24 24 25 24 24 24 23 23 25 24 27 25 26 37 63 66 67 67 68 68 68 68 68 69 70 70 70 70 70 70 69 70 70 69 69 69 69 69 70 70 69 69 67
23 22 22 23 24 28 27 28 26 24 23 22 22 23 23 24 26 28 27 27 53 64 67 68 68 68 68 68 68 68 68 69 69 69 69 69 68 68 69 69 69 69 69 68 69 69 69 68 68
25 26 28 28 30 30 29 29 27 26 26 25 25 25 22 20 20 26 27 26 27 56 60 68 69 69 68 69 68 67 68 68 68 68 68 68 68 68 68 68 68 68 68 68 68 68 68 68 67
30 30 31 31 29 29 29 27 27 27 27 26 25 23 23 23 22 21 25 29 36 48 66 66 63 64 67 67 67 68 67 67 67 67 68 68 67 67 67 67 67 68 68 68 67 68 68 67 67
31 31 31 30 30 30 28 28 27 26 27 27 27 27 27 25 24 22 21 28 51 54 54 53 53 53 54 55 56 58 61 64 67 67 67 68 68 68 68 67 67 67 68 68 67 67 67 67 67
31 30 29 28 27 27 27 24 23 23 29 29 30 31 31 31 30 26 24 38 50 50 50 50 50 50 50 50 52 53 55 57 58 59 62 65 67 67 67 67 68 68 68 67 67 67 67 66 66
29 29 25 25 26 26 27 23 26 29 27 27 30 30 31 31 31 28 34 47 49 48 47 47 48 48 48 48 49 50 51 52 52 55 56 59 61 62 66 66 66 67 68 67 67 66 66 66 65
29 23 25 24 26 26 25 23 28 27 27 28 30 30 30 31 33 45 47 47 47 46 45 45 46 46 46 46 47 48 48 48 51 51 52 53 55 56 57 60 66 67 66 66 66 66 66 65 65
19 24 25 24 24 25 26 25 24 25 27 29 29 28 28 34 44 44 44 44 44 44 44 44 43 43 44 45 45 46 44 45 47 47 49 50 52 53 53 55 60 65 65 64 64 64 65 64 64
28 27 26 27 28 27 25 24 24 25 27 27 27 27 29 42 43 43 43 43 42 41 41 41 41 41 42 42 42 43 41 44 43 46 45 46 48 49 49 51 52 55 62 64 63 63 62 62 64
29 27 28 28 27 25 24 24 26 26 26 26 26 28 39 42 42 41 41 40 40 40 40 40 40 40 40 41 41 41 40 43 42 42 42 44 44 45 47 48 49 52 52 55 64 63 62 62 63
29 28 28 26 28 28 27 24 22 23 24 25 26 28 37 41 40 40 38 38 38 38 38 38 38 38 38 39 39 39 39 39 40 39 40 42 43 44 45 46 49 50 51 51 54 62 63 61 61
27 27 28 28 26 23 28 20 21 23 32 37 40 40 39 39 38 38 37 37 37 35 35 35 35 36 37 37 37 38 38 37 38 38 40 41 42 44 45 46 47 48 50 52 53 57 62 62 59
26 31 29 29 28 27 27 24 23 32 34 38 39 39 39 39 38 37 37 36 35 36 35 34 33 34 35 35 36 36 36 37 38 38 38 40 42 43 44 46 46 47 48 50 52 53 56 62 61
33 30 29 31 28 22 22 22 21 30 31 35 39 37 37 37 36 36 37 36 35 33 33 34 33 33 34 34 35 35 35 36 36 37 37 38 39 41 43 45 46 47 48 50 51 52 56 59 60
30 27 26 22 21 18 24 23 28 31 32 35 34 35 35 36 36 35 33 33 33 32 32 33 33 33 33 33 33 34 34 35 35 36 36 37 38 40 41 42 43 45 47 49 50 51 53 57 59
29 28 24 16 16 19 24 18 28 33 35 34 34 34 33 33 33 33 34 32 32 32 32 32 32 32 33 33 33 33 34 34 35 35 35 36 37 38 39 40 41 43 45 47 49 51 52 54 59
29 27 27 25 26 22 20 29 32 34 33 33 33 33 32 32 32 32 32 33 31 31 31 31 31 31 32 32 33 33 33 34 34 34 34 34 35 36 37 38 40 41 43 45 48 52 52 53 57
29 29 24 26 17 17 19 24 25 29 30 32 31 31 31 32 32 32 32 32 32 32 32 30 31 31 31 31 32 32 32 33 32 33 32 32 33 34 35 36 37 39 41 44 45 48 53 53 57
29 28 28 26 24 18 19 21 29 31 33 31 32 32 31 31 31 30 30 31 31 31 31 30 30 30 30 31 31 32 32 31 30 30 30 30 31 32 32 33 35 36 37 39 40 42 53 53 54
30 28 30 22 22 26 23 21 33 35 35 34 32 31 31 30 30 30 30 29 28 29 29 29 29 29 29 31 31 31 31 31 30 29 29 29 29 30 30 31 32 33 34 36 37 38 42 53 54

GFSSGP_sfc_30mbdewp_120.txt.gz
Dewpoint
46 40 38 30 21 21 16 18 21 20 21 18 15 13 14 26 36 26 49 55 66 68 71 70 71 72 71 71 71 71 71 70 71 72 73 73 72 72 72 72 72 73 73 72 71 71 71 69 68
44 40 30 26 20 16 14 22 21 22 23 22 15 22 27 30 45 49 52 64 67 68 70 71 71 72 72 71 71 71 71 71 71 71 72 72 72 72 72 72 73 73 73 72 71 70 71 70 67
40 35 26 23 22 16 16 21 23 23 23 21 16 22 28 31 43 50 49 66 67 68 70 70 71 71 72 71 71 71 71 71 71 71 71 71 71 72 72 72 73 73 73 72 70 71 72 70 68
34 28 26 22 19 22 22 23 23 23 23 21 16 16 31 37 43 46 60 67 66 68 70 70 71 71 71 71 71 71 71 70 70 70 71 71 71 71 72 72 72 73 73 72 71 72 72 70 69
29 26 22 21 21 23 24 24 24 23 23 23 21 21 28 39 52 57 65 67 66 67 69 70 70 71 71 70 70 71 70 70 70 70 70 71 71 72 71 71 72 72 72 72 71 72 70 69 69
26 26 21 20 22 23 24 24 23 23 24 23 22 24 26 32 50 58 62 66 68 67 68 69 70 70 70 70 70 70 70 70 70 70 70 70 70 71 71 71 72 72 72 71 71 71 70 69 69
24 24 22 22 22 22 23 24 23 23 23 23 24 24 28 30 33 46 56 62 67 68 67 68 69 70 70 70 70 69 70 70 70 70 70 70 70 70 69 70 71 71 71 71 71 70 70 70 69
24 23 21 21 22 21 22 23 24 24 24 25 25 20 20 28 32 30 39 63 67 67 67 67 68 69 69 70 70 70 69 70 70 70 70 70 70 70 69 69 69 70 71 71 71 70 70 70 69
24 21 22 22 21 22 23 24 25 26 24 25 24 22 23 28 30 27 26 46 64 67 67 67 67 68 68 68 69 69 70 70 70 70 70 70 70 69 69 69 69 69 70 70 70 70 69 69 69
24 22 23 23 22 22 24 27 28 26 27 26 25 26 26 27 25 25 27 26 41 63 66 67 67 67 68 68 68 68 69 70 70 70 70 70 69 69 69 69 69 69 69 69 69 70 69 69 68
23 22 22 23 24 30 29 29 28 27 26 26 26 26 27 25 23 24 26 28 28 48 65 67 67 67 67 68 67 67 68 69 68 69 69 69 69 68 68 69 69 68 68 68 69 69 69 68 68
25 26 26 29 31 30 29 29 28 27 28 28 27 26 26 24 25 25 25 26 27 28 56 67 67 67 67 68 67 67 67 68 68 68 69 68 68 68 68 68 67 67 68 68 68 68 69 68 68
30 30 32 31 31 30 30 29 28 28 29 28 28 28 29 29 29 30 28 26 27 29 55 66 68 68 68 68 68 67 67 67 67 67 68 68 68 67 67 67 67 67 67 67 67 67 67 67 67
32 31 31 31 30 29 27 27 27 26 28 28 29 30 30 30 31 31 30 30 31 49 58 58 62 62 59 59 60 60 61 63 66 66 66 67 67 67 67 67 67 67 67 67 67 66 66 66 66
31 29 29 27 27 26 27 20 22 27 26 25 25 28 30 31 31 32 34 30 49 52 51 51 51 52 52 53 53 55 56 56 57 58 60 61 61 61 64 66 66 66 67 66 67 67 67 66 65
29 28 22 23 26 26 25 18 23 28 25 24 25 27 29 30 36 46 47 47 46 46 46 46 48 48 49 49 51 51 52 52 52 54 55 55 57 57 58 58 61 66 68 67 66 66 65 66 65
29 18 24 23 25 26 25 24 27 27 26 25 26 28 29 29 43 44 44 44 43 43 43 43 43 44 46 47 48 46 47 48 48 50 49 50 53 53 53 56 58 61 63 66 66 66 65 65 65
18 24 25 23 22 24 26 26 27 26 25 26 27 28 28 42 42 42 41 41 40 40 41 41 41 41 43 44 45 44 44 45 46 46 45 48 47 48 48 50 52 53 58 63 64 64 65 64 64
26 25 25 26 28 28 27 26 25 25 27 26 26 26 32 41 41 39 39 39 39 39 39 39 39 39 40 41 41 42 41 42 43 42 43 44 44 45 46 48 49 51 52 52 56 63 61 60 62
29 28 28 29 28 27 25 25 27 27 31 37 39 38 41 40 38 37 37 36 35 35 35 35 36 37 38 39 39 40 40 42 42 40 42 42 43 44 45 46 47 49 50 50 50 55 62 62 61
29 28 28 28 28 28 27 24 24 31 38 40 39 38 39 37 36 36 36 36 36 35 35 34 34 35 36 37 38 38 39 39 39 39 39 40 42 44 45 46 47 47 48 49 51 53 54 60 62
28 30 29 27 27 23 28 22 27 32 33 38 38 37 38 37 36 36 35 34 34 35 36 36 35 34 34 35 36 37 37 37 38 38 39 39 41 41 43 46 47 47 48 48 49 51 52 56 58
27 28 28 29 28 27 27 24 24 31 31 35 36 36 36 36 36 36 37 35 34 34 34 35 35 35 34 34 35 35 35 36 37 37 37 38 39 40 42 44 45 45 47 48 49 49 50 53 54
31 30 28 30 27 23 24 23 20 28 31 33 33 34 34 35 35 35 35 36 35 34 34 34 33 33 34 33 34 34 34 35 35 36 36 36 37 39 40 41 42 43 44 46 48 50 51 51 52
30 28 24 22 21 19 23 23 25 31 33 33 32 33 33 34 33 33 33 33 33 33 33 33 33 32 33 33 33 33 33 34 34 34 35 35 36 36 37 38 40 40 42 43 45 47 48 50 51
29 28 24 18 16 17 24 21 26 33 33 34 34 33 34 33 33 33 33 33 33 33 32 30 31 32 33 32 32 33 33 33 33 33 33 33 34 34 36 36 38 39 40 42 44 46 48 50 52
30 28 30 28 26 22 21 27 32 34 32 34 34 34 33 33 33 32 32 32 33 33 32 31 31 31 31 32 32 32 32 32 32 32 32 32 32 33 33 34 35 37 38 39 42 43 45 48 51
29 29 26 28 19 16 18 21 23 29 30 31 32 32 32 33 32 31 31 31 31 32 32 31 31 31 31 31 32 31 32 32 31 31 30 30 31 31 32 32 33 35 36 37 38 39 41 43 46
29 27 27 27 25 18 16 19 27 30 31 31 31 32 31 30 30 29 29 30 31 31 30 30 30 30 31 31 31 31 31 31 31 31 30 30 30 30 31 31 32 32 33 34 35 36 37 38 42
30 29 28 25 22 24 22 19 32 32 33 33 33 31 31 29 28 27 27 27 27 28 29 29 29 29 30 30 30 30 30 30 29 28 28 28 28 29 29 30 31 31 31 32 33 34 35 37 40

GFSSGP_sfc_30mbdewp_123.txt.gz
Dewpoint
45 40 37 30 21 21 16 19 21 22 22 22 20 15 23 28 38 29 49 55 66 69 70 70 71 71 70 70 70 70 71 73 73 72 71 71 72 71 72 72 73 73 72 72 71 71 70 68 67
42 40 31 27 21 15 15 21 22 23 23 24 21 26 24 29 45 49 52 65 66 68 69 70 71 71 71 70 70 70 71 72 73 72 72 72 71 71 72 72 72 73 72 72 71 71 71 69 67
40 32 26 24 22 16 17 22 23 23 24 22 18 22 30 35 44 50 52 67 67 68 69 69 71 71 71 70 70 70 70 71 72 72 73 72 72 72 72 72 72 73 73 72 71 71 72 69 67
34 28 26 22 20 23 22 24 24 23 24 24 23 20 30 41 44 48 64 67 67 68 69 70 71 71 71 70 70 70 70 70 70 71 72 72 73 72 72 72 72 73 73 72 71 71 72 69 68
29 27 22 22 22 23 25 24 24 23 24 24 24 23 27 35 52 63 66 67 66 67 69 70 70 71 71 71 70 70 70 70 70 70 71 72 72 72 72 72 72 73 73 72 71 70 71 69 68
26 27 22 21 22 24 24 25 24 24 25 24 23 26 26 33 44 54 61 66 68 68 68 69 70 70 71 71 70 70 70 70 70 70 70 71 71 71 71 71 72 72 72 72 72 72 71 69 68
26 25 24 23 23 23 24 25 24 25 25 23 25 22 26 26 34 36 43 62 67 69 68 69 70 70 70 70 70 70 70 70 70 70 70 70 71 71 71 71 71 72 72 71 71 71 70 69 68
26 25 24 23 23 23 23 24 25 26 25 27 27 22 22 27 31 34 33 55 64 68 69 68 69 70 70 70 69 69 69 69 69 70 70 70 70 70 70 70 71 71 71 70 70 70 69 69 69
25 24 25 25 22 23 24 26 29 27 25 28 26 26 27 29 29 30 31 32 46 64 68 69 68 69 70 70 70 70 69 69 69 69 69 70 69 69 69 69 69 70 70 70 70 70 70 69 69
24 25 25 24 23 23 28 29 29 28 29 28 27 30 30 30 28 29 29 30 32 35 48 67 68 69 69 68 69 69 70 70 70 69 70 70 70 69 68 69 69 69 69 70 70 70 70 69 68
24 23 24 23 25 31 30 30 29 28 27 28 28 28 29 29 32 33 32 32 32 33 36 52 68 68 69 68 69 68 68 69 70 70 69 69 69 69 69 68 68 68 68 68 69 69 69 69 68
24 25 25 30 31 31 30 30 28 27 27 30 29 29 29 29 31 32 31 31 32 32 33 42 65 68 68 68 69 69 68 68 68 68 69 69 69 69 68 67 67 67 68 67 68 67 69 69 69
30 30 32 32 31 31 31 29 28 27 29 29 29 28 28 29 30 31 32 33 34 33 38 49 62 68 68 69 69 69 68 67 67 68 68 69 68 68 68 68 68 67 66 67 67 67 67 68 68
32 31 31 31 30 30 28 27 27 27 28 26 26 26 28 30 32 36 43 44 47 51 53 55 56 57 67 68 68 67 66 66 66 66 66 68 67 67 67 67 67 68 68 68 67 66 66 66 67
31 29 28 27 27 26 27 18 23 27 27 25 25 26 27 31 43 45 47 46 46 47 48 49 50 51 53 57 58 60 60 60 60 60 60 60 61 61 64 66 66 67 68 67 67 67 67 66 66
29 28 17 23 25 27 24 17 23 28 26 25 26 27 28 40 43 43 43 42 42 43 43 43 44 45 48 51 53 54 55 55 56 55 55 55 56 57 59 59 61 61 63 67 66 66 65 65 65
28 14 23 21 25 25 24 23 25 27 27 26 26 27 30 41 41 40 40 40 39 40 40 40 41 41 44 47 47 49 49 49 51 49 50 52 50 51 52 53 56 56 59 61 65 66 65 64 64
11 20 25 22 22 26 27 26 27 28 27 31 36 36 40 39 38 37 36 36 36 36 37 37 38 39 40 42 44 45 45 45 45 45 46 47 48 48 49 51 51 52 53 56 62 63 65 65 65
24 23 24 27 28 29 27 26 26 29 39 38 39 40 40 38 37 36 36 36 35 35 35 35 36 37 38 39 39 41 42 43 42 42 44 44 46 47 48 47 49 50 51 52 53 55 60 63 64
29 28 27 29 29 28 26 26 31 37 39 38 38 38 37 36 35 34 33 34 35 35 36 35 35 35 36 37 39 39 40 42 42 41 42 42 44 46 46 47 48 49 49 50 51 52 54 62 62
29 28 28 28 29 28 27 24 32 34 38 37 37 37 37 36 35 34 33 33 34 34 34 35 35 35 35 36 37 37 38 38 39 39 40 41 42 43 45 46 46 47 48 48 48 51 52 54 61
28 30 30 29 26 22 28 20 27 32 33 36 36 36 36 36 35 35 35 34 33 34 35 34 34 35 36 36 35 36 35 35 37 38 38 39 41 42 42 44 45 46 47 48 48 49 50 52 53
26 29 28 28 27 28 26 24 27 30 29 33 34 35 35 36 37 36 36 36 35 34 34 34 34 34 35 35 36 35 34 35 35 36 37 37 39 39 40 41 42 43 44 46 47 49 50 50 50
30 30 29 30 28 22 24 23 23 26 29 32 34 35 35 36 36 35 35 35 35 35 33 33 33 33 34 34 35 35 34 34 34 34 34 35 36 37 37 38 39 40 41 42 44 45 47 49 51
29 28 20 21 21 19 24 24 22 30 32 33 33 34 35 35 35 34 34 33 34 33 32 33 33 33 33 33 33 33 33 33 33 32 33 33 33 34 35 35 37 38 39 40 42 43 45 47 48
29 25 20 16 17 17 24 21 23 32 33 33 34 35 35 34 34 33 33 32 32 32 31 31 31 31 32 33 33 33 33 33 32 32 32 32 32 33 33 34 35 36 37 38 39 41 43 45 47
29 27 28 26 26 24 21 23 30 32 32 34 34 35 33 32 33 32 31 31 31 31 31 31 31 31 31 32 32 31 31 32 32 31 31 31 32 32 32 33 33 34 35 36 37 38 40 41 42
30 30 27 30 20 17 18 20 21 30 30 33 34 34 33 33 31 30 29 30 30 29 30 30 30 30 31 31 31 31 31 31 30 30 29 30 30 30 31 32 32 33 33 34 35 36 37 38 40
29 28 28 28 27 18 13 16 27 30 31 32 33 34 33 31 30 28 28 28 29 29 29 30 30 30 30 30 30 30 30 30 30 29 28 28 29 29 29 30 32 32 32 33 33 34 36 37 39
30 29 29 25 24 26 23 19 32 32 32 33 33 34 32 30 27 26 26 26 27 27 28 28 29 29 30 30 29 29 29 29 28 28 27 27 27 27 28 29 31 31 31 32 32 33 34 35 35